CW1620 Weather Reports


time (UTC)temp
C
wind
direction
speed
KPH
gust
KPH
rain 1hr
cm
rain 24hr
cm
rain mn
cm
humidity
%
barometer
mb
20260507061037 13 0.0 0.0 0.10 0.46 0.15 93 1010.7
20260507060017 13 0.0 0.0 0.15 0.46 0.15 94 1010.9
20260507055016 13 0.0 0.0 0.15 0.46 0.15 93 1010.5
20260507054017 13 0.0 0.0 0.13 0.43 0.13 92 1010.4
20260507053017 13 0.0 0.0 0.10 0.41 0.10 92 1010.9
20260507052037 14 0.0 0.0 0.08 0.38 0.08 91 1010.7
20260507051017 15 0.0 0.0 0.05 0.36 0.05 90 1010.5
20260507050017 15 0.0 0.0 0.00 0.30 0.00 88 1010.2
20260507045016 15 0.0 0.0 0.00 0.30 0.00 87 1009.9
20260507044017 15 0.0 0.0 0.00 0.30 0.00 87 1010.3
20260507043016 15 0.0 0.0 0.00 0.30 0.00 87 1009.7
20260507042017 15 0.0 0.0 0.00 0.30 0.00 87 1009.8
20260507041017 16 0.0 0.0 0.00 0.30 0.00 86 1009.8
20260507040017 16 0.0 0.0 0.00 0.30 0.30 86 1009.7
20260507035016 16 0.0 0.0 0.00 0.30 0.30 86 1010.0
20260507034016 16 0.0 0.0 0.00 0.30 0.30 88 1009.8
20260507033016 16 0.0 0.0 0.00 0.30 0.30 88 1009.4
20260507032036 17 0.0 0.0 0.00 0.30 0.30 87 1009.5
20260507031036 17 0.0 0.0 0.00 0.30 0.30 86 1009.5
20260507030016 17 0.0 0.0 0.00 0.30 0.30 85 1009.4
20260507025016 17 0.0 0.0 0.00 0.30 0.30 85 1009.3
20260507024016 17 0.0 0.0 0.00 0.30 0.30 88 1008.8
20260507023036 18 0.0 0.0 0.00 0.30 0.30 92 1009.0
20260507022038 18 0.0 0.0 0.00 0.30 0.30 93 1009.3
20260507021037 18 0.0 0.0 0.00 0.30 0.30 93 1009.2
20260507020018 18 0.0 0.0 0.00 0.30 0.30 93 1009.3
20260507015018 18 0.0 0.0 0.00 0.30 0.30 92 1009.3
20260507014017 18 0.0 0.0 0.00 0.30 0.30 92 1009.6
20260507013038 18 0.0 0.0 0.00 0.30 0.30 92 1009.3
20260507012017 18 0.0 0.0 0.00 0.30 0.30 91 1009.2
20260507011017 18 0.0 0.0 0.00 0.30 0.30 91 1009.0
20260507010017 18 0.0 0.0 0.00 0.30 0.30 91 1009.1
20260507005017 18 0.0 0.0 0.00 0.30 0.30 91 1008.8
20260507004017 18 0.0 0.0 0.00 0.30 0.30 91 1008.8
20260507003017 18 0.0 0.0 0.00 0.30 0.30 91 1008.9
20260507002037 18 0.0 0.0 0.00 0.30 0.30 90 1009.0
20260507001017 18 0.0 0.0 0.00 0.30 0.30 90 1008.7
20260507000037 18 0.0 0.0 0.00 0.30 0.30 89 1008.5
20260506235017 18 0.0 0.0 0.00 0.30 0.30 89 1008.3
20260506234017 18 0.0 0.0 0.00 0.30 0.30 89 1008.2
20260506233017 19 0.0 0.0 0.00 0.30 0.30 89 1008.1
20260506232017 19 0.0 0.0 0.00 0.30 0.30 89 1008.3
20260506231017 19 0.0 0.0 0.00 0.30 0.30 89 1008.4
20260506230037 19 0.0 0.0 0.00 0.30 0.30 89 1008.3
20260506225017 19 0.0 0.0 0.00 0.30 0.30 89 1008.2
20260506224017 19 0.0 0.0 0.00 0.30 0.30 89 1008.3
20260506223017 19 0.0 0.0 0.00 0.30 0.30 89 1008.3
20260506222017 19 0.0 0.0 0.00 0.30 0.30 88 1008.2
20260506221017 19 0.0 0.0 0.00 0.30 0.30 89 1008.2
20260506220017 19 0.0 0.0 0.00 0.30 0.30 90 1008.2
20260506215017 19 0.0 0.0 0.00 0.30 0.30 89 1008.0
20260506214017 19 0.0 0.0 0.00 0.30 0.30 89 1008.0
20260506213017 19 0.0 0.0 0.00 0.30 0.30 89 1008.0
20260506212017 19 0.0 0.0 0.00 0.30 0.30 89 1007.9
20260506211017 19 0.0 0.0 0.00 0.30 0.30 88 1007.9
20260506210017 19 0.0 0.0 0.00 0.30 0.30 88 1007.9
20260506205037 20 0.0 0.0 0.00 0.30 0.30 87 1007.9
20260506204017 20 0.0 0.0 0.00 0.30 0.30 90 1007.7
20260506203017 20 0.0 0.0 0.00 0.30 0.30 89 1007.8
20260506202017 19 0.0 0.0 0.00 0.30 0.30 87 1007.7
20260506201017 20 0.0 0.0 0.00 0.30 0.30 88 1007.7
20260506200017 20 0.0 0.0 0.00 0.30 0.30 90 1007.6
20260506195017 19 0.0 0.0 0.00 0.30 0.30 92 1007.6
20260506194017 18 0.0 0.0 0.00 0.30 0.30 93 1007.7
20260506193017 18 0.0 0.0 0.00 0.30 0.30 94 1007.9
20260506192016 18 0.0 0.0 0.00 0.30 0.30 94 1008.0
20260506191016 17 0.0 0.0 0.00 0.30 0.30 94 1008.3
20260506190018 17 0.0 0.0 0.00 0.30 0.30 95 1008.3
20260506185016 17 0.0 0.0 0.00 0.30 0.30 95 1008.3
20260506184017 17 0.0 0.0 0.00 0.30 0.30 95 1008.4
20260506183016 17 0.0 0.0 0.00 0.30 0.30 95 1008.4
20260506182017 17 0.0 0.0 0.00 0.30 0.30 96 1008.5
20260506181016 17 0.0 0.0 0.00 0.30 0.30 96 1008.6
20260506180016 16 0.0 0.0 0.00 0.30 0.30 96 1008.6
20260506175017 16 0.0 0.0 0.00 0.30 0.30 96 1008.7
20260506174016 16 0.0 0.0 0.00 0.30 0.30 96 1008.8
20260506173036 16 0.0 0.0 0.00 0.30 0.30 96 1008.7
20260506172016 16 0.0 0.0 0.00 0.30 0.30 96 1008.7
20260506171037 16 0.0 0.0 0.03 0.30 0.30 96 1008.8
20260506170016 16 0.0 0.0 0.03 0.30 0.30 96 1009.0
20260506165016 16 0.0 0.0 0.05 0.30 0.30 96 1009.0
20260506164016 16 0.0 0.0 0.08 0.30 0.30 95 1009.0
20260506163036 16 0.0 0.0 0.10 0.30 0.30 95 1009.0
20260506162017 16 0.0 0.0 0.13 0.30 0.30 96 1009.2
20260506161016 16 0.0 0.0 0.13 0.28 0.28 96 1009.3
20260506160016 16 0.0 0.0 0.13 0.28 0.28 96 1009.2
20260506155016 16 0.0 0.0 0.13 0.25 0.25 95 1009.3
20260506154016 16 0.0 0.0 0.13 0.23 0.23 95 1009.8
20260506153016 16 0.0 0.0 0.10 0.20 0.20 94 1009.9
20260506152016 16 0.0 0.0 0.10 0.18 0.18 94 1009.9
20260506151016 16 0.0 0.0 0.10 0.15 0.15 94 1010.1
20260506150036 16 0.0 0.0 0.13 0.15 0.15 94 1010.0
20260506145016 16 0.0 0.0 0.13 0.13 0.13 93 1009.7
20260506144016 16 0.0 0.0 0.10 0.10 0.10 93 1009.9
20260506143016 16 0.0 0.0 0.10 0.10 0.10 91 1009.9
20260506142016 16 0.0 0.0 0.08 0.08 0.08 90 1010.2
20260506141016 17 0.0 0.0 0.05 0.05 0.05 89 1010.3
20260506140036 17 0.0 0.0 0.03 0.03 0.03 87 1010.2
20260506135016 17 0.0 0.0 0.00 0.00 0.00 85 1010.0
20260506134017 17 0.0 0.0 0.00 0.00 0.00 84 1010.2
20260506133036 17 0.0 0.0 0.00 0.00 0.00 84 1009.9
20260506132016 17 0.0 0.0 0.00 0.00 0.00 85 1009.8
20260506131016 17 0.0 0.0 0.00 0.00 0.00 85 1009.9
20260506130016 17 0.0 0.0 0.00 0.00 0.00 85 1010.0
20260506125016 17 0.0 0.0 0.00 0.00 0.00 83 1010.0
20260506124016 17 0.0 0.0 0.00 0.00 0.00 82 1010.2
20260506123016 17 0.0 0.0 0.00 0.00 0.00 82 1010.3
20260506122036 18 0.0 0.0 0.00 0.00 0.00 82 1010.2
20260506121016 18 0.0 0.0 0.00 0.00 0.00 82 1010.2
20260506120016 18 0.0 0.0 0.00 0.00 0.00 82 1010.0
20260506115016 18 0.0 0.0 0.00 0.00 0.00 82 1009.9
20260506114016 18 0.0 0.0 0.00 0.00 0.00 82 1009.9
20260506113016 18 0.0 0.0 0.00 0.00 0.00 82 1009.8
20260506112036 17 0.0 0.0 0.00 0.00 0.00 82 1009.6
20260506111016 17 0.0 0.0 0.00 0.00 0.00 82 1009.6
20260506110036 17 0.0 0.0 0.00 0.00 0.00 82 1009.6
20260506105016 17 0.0 0.0 0.00 0.00 0.00 83 1009.6
20260506104016 17 0.0 0.0 0.00 0.00 0.00 83 1009.5
20260506103038 17 0.0 0.0 0.00 0.00 0.00 83 1009.4
20260506102018 17 0.0 0.0 0.00 0.00 0.00 83 1009.6
20260506101037 17 0.0 0.0 0.00 0.00 0.00 82 1009.5
20260506100018 17 0.0 0.0 0.00 0.00 0.00 82 1009.4
20260506095018 17 0.0 0.0 0.00 0.00 0.00 82 1009.5
20260506094017 17 0.0 0.0 0.00 0.00 0.00 82 1009.5
20260506093018 17 0.0 0.0 0.00 0.00 0.00 82 1009.5
20260506092017 18 0.0 0.0 0.00 0.00 0.00 81 1009.5
20260506091038 18 0.0 0.0 0.00 0.00 0.00 81 1009.7
20260506090017 18 0.0 0.0 0.00 0.00 0.00 81 1009.7
20260506085017 18 0.0 0.0 0.00 0.00 0.00 81 1009.7
20260506084017 18 0.0 0.0 0.00 0.00 0.00 80 1009.7
20260506083017 18 0.0 0.0 0.00 0.00 0.00 79 1009.7
20260506082017 18 0.0 0.0 0.00 0.00 0.00 79 1009.6
20260506081017 18 0.0 0.0 0.00 0.00 0.00 78 1009.6
20260506073018 19 0.0 0.0 0.00 0.00 0.00 77 1009.9
20260506072038 19 0.0 0.0 0.00 0.00 0.00 77 1009.9
20260506071017 19 0.0 0.0 0.00 0.00 0.00 77 1010.0
20260506062017 19 0.0 0.0 0.00 0.00 0.00 75 1010.3